Terminal Aerodrome Forecast
Issued by NWS Sterling, VA

Current Version | Previous Version | Text Only | Print | Product List | Glossary Off
Versions: 1 2 3 4 5 6 7 8 9 10 11 12 13 14 15 16 17 18 19 20 21 22 23 24 25 26

423
FTUS41 KLWX 021140
TAFDCA
TAF
KDCA 021140Z 0212/0312 12005KT 1 1/2SM -SHRA OVC004
     FM021330 18005KT 2SM BR OVC003
     FM022200 22007KT P6SM VCTS BKN035CB
     FM030000 22006KT P6SM -SHRA VCTS OVC050CB
     FM030100 23006KT P6SM -SHRA OVC040
     FM030400 28005KT 3SM -SHRA BR OVC030
     FM030600 36004KT 3SM -SHRA BR OVC008
     FM030700 36004KT 2SM SHRA BR OVC003=

USA.gov is the U.S. government's official web portal to all federal, state and local government web resources and services.